When you browse on this site, cookies collect data to enhance your experience and personalize the content and advertising you see.
Visit our Privacy Policy to learn more. By continuing to use the site, you agree to this use of cookies and data.
  • In United Kingdom
  • List of Countries
  • For 7 days
  • Water Temperature
  • Satellite Maps
  • Weather Map
  • Weather Widgets
  • user-avatar
    Login

    Hourly Weather Obukhove

    Today, 17 June, Monday

    Time Temperature Precipitation Wind Pressure Humidity
    00:00 +18°C° 0 mm 2 mps 746 mmHg 87%
    01:00 +17°C° 0 mm 2 mps 746 mmHg 87%
    02:00 +17°C° 0 mm 2 mps 746 mmHg 87%
    03:00 +17°C° 0 mm 2 mps 746 mmHg 88%
    04:00 +17°C° 0 mm 2 mps 746 mmHg 88%
    05:00 +18°C° 0 mm 2 mps 746 mmHg 89%
    06:00 +19°C° 0 mm 2 mps 747 mmHg 85%
    07:00 +20°C° 0 mm 2 mps 747 mmHg 80%
    08:00 +23°C° 0 mm 1 mps 747 mmHg 76%
    09:00 +24°C° 0 mm 1 mps 747 mmHg 70%
    10:00 +25°C° 0 mm 1 mps 747 mmHg 64%
    11:00 +25°C° 0 mm 0 mps 747 mmHg 58%
    12:00 +25°C° 0 mm 0 mps 747 mmHg 56%
    13:00 +27°C° 0 mm 1 mps 747 mmHg 54%
    14:00 +28°C° 0 mm 1 mps 747 mmHg 52%
    15:00 +28°C° 0 mm 1 mps 746 mmHg 54%
    16:00 +28°C° 0 mm 1 mps 746 mmHg 55%
    17:00 +26°C° 0 mm 0 mps 746 mmHg 57%
    18:00 +26°C° 0 mm 1 mps 746 mmHg 61%
    19:00 +24°C° 0 mm 1 mps 746 mmHg 66%
    20:00 +23°C° 0 mm 1 mps 746 mmHg 70%
    21:00 +22°C° 0 mm 1 mps 746 mmHg 71%
    22:00 +22°C° 0 mm 1 mps 746 mmHg 72%
    23:00 +21°C° 0 mm 1 mps 746 mmHg 73%

    Tomorrow, 18 June, Tuesday

    Time Temperature Precipitation Wind Pressure Humidity
    00:00 +20°C° 0 mm 2 mps 746 mmHg 76%
    01:00 +19°C° 0 mm 2 mps 746 mmHg 80%
    02:00 +19°C° 0 mm 2 mps 746 mmHg 83%
    03:00 +19°C° 0 mm 2 mps 746 mmHg 87%
    04:00 +19°C° 0 mm 2 mps 746 mmHg 91%
    05:00 +19°C° 0 mm 2 mps 746 mmHg 95%
    06:00 +20°C° 0 mm 2 mps 746 mmHg 91%
    07:00 +21°C° 0 mm 3 mps 747 mmHg 88%
    08:00 +22°C° 0 mm 3 mps 747 mmHg 84%
    09:00 +24°C° 0 mm 3 mps 747 mmHg 80%
    10:00 +25°C° 0 mm 3 mps 747 mmHg 75%
    11:00 +25°C° 0 mm 4 mps 747 mmHg 70%
    12:00 +25°C° 0 mm 4 mps 747 mmHg 71%
    13:00 +26°C° 0 mm 4 mps 747 mmHg 71%
    14:00 +26°C° 0 mm 4 mps 746 mmHg 71%
    15:00 +25°C° 0 mm 4 mps 746 mmHg 73%
    16:00 +25°C° 0 mm 4 mps 746 mmHg 74%
    17:00 +25°C° 0 mm 5 mps 746 mmHg 76%
    18:00 +22°C° 0 mm 4 mps 746 mmHg 81%
    19:00 +21°C° 0 mm 3 mps 746 mmHg 86%
    20:00 +20°C° 0 mm 3 mps 746 mmHg 91%
    21:00 +19°C° 0 mm 3 mps 746 mmHg 92%
    22:00 +18°C° 0 mm 2 mps 747 mmHg 93%
    23:00 +18°C° 0 mm 2 mps 747 mmHg 94%

    Day after tomorrow, 19 June, Wednesday

    Time Temperature Precipitation Wind Pressure Humidity
    00:00 +18°C° 0 mm 2 mps 747 mmHg 94%
    01:00 +17°C° 0 mm 2 mps 747 mmHg 95%
    02:00 +17°C° 0 mm 2 mps 747 mmHg 96%
    03:00 +17°C° 0 mm 2 mps 747 mmHg 95%
    04:00 +17°C° 0 mm 3 mps 747 mmHg 94%
    05:00 +18°C° 0 mm 3 mps 747 mmHg 93%
    06:00 +19°C° 0 mm 3 mps 747 mmHg 88%
    07:00 +21°C° 0 mm 3 mps 747 mmHg 82%
    08:00 +22°C° 0 mm 4 mps 747 mmHg 76%
    09:00 +25°C° 0 mm 4 mps 747 mmHg 71%
    10:00 +26°C° 0 mm 4 mps 748 mmHg 67%
    11:00 +27°C° 0 mm 4 mps 748 mmHg 62%
    12:00 +27°C° 0 mm 4 mps 748 mmHg 60%
    13:00 +27°C° 0 mm 4 mps 747 mmHg 59%
    14:00 +28°C° 0 mm 4 mps 747 mmHg 58%
    15:00 +27°C° 0 mm 4 mps 747 mmHg 61%
    16:00 +27°C° 0 mm 4 mps 747 mmHg 64%
    17:00 +27°C° 0 mm 4 mps 747 mmHg 67%
    18:00 +25°C° 0 mm 3 mps 747 mmHg 72%
    19:00 +22°C° 0 mm 3 mps 747 mmHg 77%
    20:00 +21°C° 0 mm 3 mps 747 mmHg 82%
    21:00 +20°C° 0 mm 3 mps 747 mmHg 85%
    22:00 +19°C° 0 mm 3 mps 748 mmHg 87%
    23:00 +18°C° 0 mm 3 mps 748 mmHg 90%

    20 June, Thursday

    Time Temperature Precipitation Wind Pressure Humidity
    00:00 +18°C° 0 mm 2 mps 748 mmHg 91%
    01:00 +17°C° 0 mm 2 mps 748 mmHg 91%
    02:00 +17°C° 0 mm 2 mps 748 mmHg 92%
    03:00 +17°C° 0 mm 2 mps 748 mmHg 90%
    04:00 +17°C° 0 mm 2 mps 748 mmHg 89%
    05:00 +17°C° 0 mm 3 mps 748 mmHg 88%
    06:00 +19°C° 0 mm 3 mps 748 mmHg 83%
    07:00 +21°C° 0 mm 3 mps 748 mmHg 79%
    08:00 +22°C° 0 mm 3 mps 748 mmHg 75%
    09:00 +24°C° 0 mm 3 mps 749 mmHg 69%
    10:00 +26°C° 0 mm 3 mps 749 mmHg 63%
    11:00 +27°C° 0 mm 3 mps 749 mmHg 57%
    12:00 +27°C° 0 mm 3 mps 748 mmHg 56%
    13:00 +28°C° 0 mm 3 mps 748 mmHg 54%
    14:00 +28°C° 0 mm 3 mps 748 mmHg 52%
    15:00 +28°C° 0 mm 3 mps 748 mmHg 56%
    16:00 +27°C° 0 mm 3 mps 748 mmHg 59%
    17:00 +27°C° 0 mm 3 mps 747 mmHg 63%
    18:00 +25°C° 0 mm 2 mps 748 mmHg 68%
    19:00 +24°C° 0 mm 2 mps 748 mmHg 72%
    20:00 +21°C° 0 mm 2 mps 748 mmHg 77%
    21:00 +20°C° 0 mm 2 mps 748 mmHg 80%
    22:00 +20°C° 0 mm 2 mps 748 mmHg 82%
    23:00 +19°C° 0 mm 2 mps 748 mmHg 85%

    21 June, Friday

    Time Temperature Precipitation Wind Pressure Humidity
    00:00 +19°C° 0 mm 2 mps 748 mmHg 87%
    01:00 +18°C° 0 mm 2 mps 748 mmHg 89%
    02:00 +18°C° 0 mm 2 mps 748 mmHg 91%
    03:00 +18°C° 0 mm 2 mps 748 mmHg 90%
    04:00 +18°C° 0 mm 2 mps 748 mmHg 89%
    05:00 +18°C° 0 mm 2 mps 749 mmHg 88%
    06:00 +20°C° 0 mm 2 mps 749 mmHg 83%
    07:00 +23°C° 0 mm 2 mps 749 mmHg 77%
    08:00 +25°C° 0 mm 3 mps 749 mmHg 72%
    09:00 +26°C° 0 mm 3 mps 749 mmHg 67%
    10:00 +27°C° 0 mm 3 mps 749 mmHg 61%
    11:00 +28°C° 0 mm 3 mps 749 mmHg 56%
    12:00 +28°C° 0 mm 3 mps 749 mmHg 54%
    13:00 +28°C° 0 mm 3 mps 749 mmHg 53%
    14:00 +29°C° 0 mm 3 mps 749 mmHg 52%
    15:00 +29°C° 0 mm 3 mps 748 mmHg 55%
    16:00 +28°C° 0 mm 3 mps 748 mmHg 58%
    17:00 +28°C° 0 mm 2 mps 748 mmHg 61%
    18:00 +26°C° 0 mm 2 mps 748 mmHg 65%
    19:00 +25°C° 0 mm 2 mps 748 mmHg 69%
    20:00 +23°C° 0 mm 2 mps 748 mmHg 73%
    21:00 +21°C° 0 mm 2 mps 748 mmHg 76%
    22:00 +20°C° 0 mm 2 mps 748 mmHg 79%
    23:00 +20°C° 0 mm 2 mps 748 mmHg 81%

    22 June, Saturday

    Time Temperature Precipitation Wind Pressure Humidity
    00:00 +19°C° 0 mm 2 mps 748 mmHg 83%
    01:00 +19°C° 0 mm 2 mps 748 mmHg 86%
    02:00 +19°C° 0 mm 2 mps 748 mmHg 88%
    03:00 +19°C° 0 mm 2 mps 748 mmHg 88%
    04:00 +19°C° 0 mm 2 mps 748 mmHg 88%
    05:00 +19°C° 0 mm 2 mps 748 mmHg 88%
    06:00 +21°C° 0 mm 2 mps 749 mmHg 83%
    07:00 +24°C° 0 mm 3 mps 749 mmHg 78%
    08:00 +25°C° 0 mm 3 mps 749 mmHg 72%
    09:00 +26°C° 0 mm 3 mps 749 mmHg 67%
    10:00 +28°C° 0 mm 3 mps 749 mmHg 61%
    11:00 +29°C° 0 mm 3 mps 749 mmHg 56%
    12:00 +29°C° 0 mm 3 mps 749 mmHg 55%
    13:00 +29°C° 0 mm 3 mps 748 mmHg 53%
    14:00 +30°C° 0 mm 3 mps 748 mmHg 52%
    15:00 +29°C° 0 mm 3 mps 748 mmHg 54%
    16:00 +29°C° 0 mm 3 mps 748 mmHg 57%
    17:00 +29°C° 0 mm 2 mps 747 mmHg 60%
    18:00 +27°C° 0 mm 2 mps 748 mmHg 64%
    19:00 +25°C° 0 mm 2 mps 748 mmHg 68%
    20:00 +24°C° 0 mm 2 mps 748 mmHg 73%
    21:00 +23°C° 0 mm 2 mps 748 mmHg 75%
    22:00 +21°C° 0 mm 2 mps 748 mmHg 77%
    23:00 +21°C° 0 mm 2 mps 748 mmHg 79%
    Show more